���t,����,�O�C���x,�����t���O,�O�C���Ύ��x,�����t���O,���ԉ��x,�����t���O,���ԑ��Ύ��x,�����t���O,�g�C������,�����t���O,�L�b�`�����x,�����t���O,��󒲎����x,�����t���O
2003/2/1,0:00,5.2,0,73,0,17.3,0,46.4,0,13,0,16.8,0,10.5,0
2003/2/1,0:15,5,0,72,0,17.3,0,47,0,13.1,0,16.8,0,10.5,0
2003/2/1,0:30,5,0,71,0,17.2,0,46.9,0,13.1,0,16.8,0,10.4,0
2003/2/1,0:45,4.9,0,71,0,17.2,0,48.1,0,13.2,0,16.7,0,10.4,0
2003/2/1,1:00,5,0,71,0,17.1,0,48.6,0,13.3,0,16.7,0,10.4,0
2003/2/1,1:15,5,0,77,0,17,0,49,0,13.3,0,16.6,0,10.4,0
2003/2/1,1:30,4.8,0,78,0,17,0,49.2,0,13.4,0,16.5,0,10.4,0
2003/2/1,1:45,4.8,0,77,0,16.9,0,48.7,0,13.5,0,16.4,0,10.3,0
2003/2/1,2:00,4.9,0,72,0,16.9,0,49.6,0,13.5,0,16.4,0,10.3,0
2003/2/1,2:15,4.8,0,73,0,16.9,0,51.4,0,13.6,0,16.4,0,10.2,0
2003/2/1,2:30,4.8,0,74,0,16.9,0,51.4,0,13.6,0,16.4,0,10.2,0
2003/2/1,2:45,4.9,0,71,0,16.8,0,50.9,0,13.7,0,16.3,0,10.2,0
2003/2/1,3:00,4.8,0,75,0,16.7,0,50,0,13.7,0,16.1,0,10.2,0
2003/2/1,3:15,4.9,0,75,0,16.6,0,51.2,0,13.8,0,16.2,0,10.1,0
2003/2/1,3:30,4.7,0,78,0,16.6,0,51.5,0,13.8,0,16.2,0,10.1,0
2003/2/1,3:45,4.7,0,79,0,16.5,0,52,0,13.9,0,16.1,0,10.1,0
2003/2/1,4:00,4.7,0,79,0,16.5,0,51.9,0,13.9,0,16.1,0,10.1,0
2003/2/1,4:15,4.8,0,77,0,16.4,0,52.2,0,14,0,16.1,0,10.1,0
2003/2/1,4:30,4.9,0,75,0,16.4,0,52.2,0,14,0,16,0,10.1,0
2003/2/1,4:45,4.9,0,71,0,16.4,0,52.7,0,14.1,0,16,0,10.1,0
2003/2/1,5:00,4.9,0,70,0,16.3,0,52.9,0,14.1,0,16,0,10.1,0
2003/2/1,5:15,4.9,0,72,0,16.3,0,52.7,0,14.2,0,15.9,0,10.1,0
2003/2/1,5:30,4.7,0,74,0,16.3,0,53.1,0,14.2,0,15.9,0,10.1,0
2003/2/1,5:45,4.4,0,73,0,16.2,0,53.6,0,14.3,0,15.9,0,10.1,0
2003/2/1,6:00,4.5,0,69,0,16.2,0,53.7,0,14.3,0,15.8,0,10,0
2003/2/1,6:15,4.6,0,67,0,16.1,0,53.7,0,14.4,0,15.8,0,10.1,0
2003/2/1,6:30,4.7,0,66,0,16.1,0,53.8,0,14.4,0,15.8,0,10,0
2003/2/1,6:45,4.6,0,65,0,16.1,0,53.6,0,14.5,0,15.7,0,10,0
2003/2/1,7:00,4.3,0,66,0,16.1,0,53.5,0,14.5,0,15.7,0,10,0
2003/2/1,7:15,4.1,0,66,0,16,0,53.6,0,14.5,0,15.7,0,10,0
2003/2/1,7:30,4.1,0,66,0,16,0,54.1,0,14.6,0,15.7,0,10,0
2003/2/1,7:45,4.2,0,66,0,16,0,53.9,0,10.6,0,15.6,0,10,0
2003/2/1,8:00,4.6,0,64,0,16,0,55.2,0,10.8,0,15.6,0,10,0
2003/2/1,8:15,5.2,0,62,0,15.8,0,50.6,0,10.6,0,15.5,0,10,0
2003/2/1,8:30,6.2,0,57,0,18.2,0,51.6,0,10.8,0,17.3,0,10,0
2003/2/1,8:45,7.2,0,53,0,17.3,0,60,0,11,0,17.1,0,10,0
2003/2/1,9:00,7.6,0,51,0,17.3,0,62,0,11.2,0,17,0,10.1,0
2003/2/1,9:15,7.3,0,51,0,17.3,0,63.3,0,11.3,0,17,0,10.1,0
2003/2/1,9:30,8.2,0,51,0,17.2,0,58.2,0,11.7,0,16.8,0,10.2,0
2003/2/1,9:45,8.4,0,48,0,16.7,0,54.9,0,11.9,0,16.3,0,10.3,0
2003/2/1,10:00,10.5,0,41,0,17,0,57.2,0,12,0,16.4,0,10.4,0
2003/2/1,10:15,9.8,0,41,0,17.1,0,59.5,0,12.2,0,16.7,0,10.5,0
2003/2/1,10:30,9.5,0,40,0,17.2,0,67.7,0,12.3,0,16.9,0,10.5,0
2003/2/1,10:45,9.9,0,42,0,17.2,0,59.4,0,12.5,0,16.8,0,10.6,0
2003/2/1,11:00,9.5,0,42,0,17.2,0,58.1,0,11.6,0,17,0,10.6,0
2003/2/1,11:15,11.9,0,35,0,17.2,0,56.5,0,11.8,0,17,0,10.6,0
2003/2/1,11:30,12.5,0,35,0,17.2,0,57.1,0,12,0,17,0,10.7,0
2003/2/1,11:45,11.4,0,39,0,17.2,0,57,0,12.1,0,17,0,10.7,0
2003/2/1,12:00,13.1,0,35,0,17.2,0,57.9,0,12.3,0,17,0,10.7,0
2003/2/1,12:15,14,0,32,0,17.2,0,57.8,0,12.4,0,17.1,0,10.8,0
2003/2/1,12:30,14.1,0,31,0,17.2,0,53.8,0,12.6,0,17,0,10.8,0
2003/2/1,12:45,16.7,0,28,0,17.2,0,55.9,0,11.2,0,17,0,10.9,0
2003/2/1,13:00,16.1,0,27,0,17.2,0,59.3,0,11.4,0,17.1,0,11,0
2003/2/1,13:15,15.9,0,25,0,17.2,0,54.8,0,11.6,0,17.1,0,11.1,0
2003/2/1,13:30,13.4,0,30,0,17.1,0,52.1,0,11.3,0,17,0,11.1,0
2003/2/1,13:45,12.1,0,32,0,17,0,51.1,0,11,0,16.9,0,11.1,0
2003/2/1,14:00,12.2,0,32,0,17,0,49.2,0,11.3,0,16.7,0,11.1,0
2003/2/1,14:15,11.9,0,33,0,16.9,0,48.1,0,11.5,0,16.5,0,11.1,0
2003/2/1,14:30,11.2,0,36,0,16.8,0,47.2,0,11.7,0,16.4,0,11.1,0
2003/2/1,14:45,11,0,37,0,16.7,0,46.2,0,9.9,0,16.3,0,11.1,0
2003/2/1,15:00,10.5,0,38,0,16.8,0,47,0,9.9,0,16.3,0,11.1,0
2003/2/1,15:15,10.2,0,41,0,16.8,0,49.2,0,10.3,0,16.4,0,11,0
2003/2/1,15:30,9.9,0,42,0,16.8,0,48.7,0,10.6,0,16.4,0,11.1,0
2003/2/1,15:45,9.6,0,43,0,16.8,0,48.6,0,10,0,16.4,0,11.1,0
2003/2/1,16:00,9.5,0,45,0,16.8,0,49.4,0,10.2,0,16.5,0,11.1,0
2003/2/1,16:15,9.2,0,45,0,16.7,0,48.9,0,10.5,0,16.4,0,11.1,0
2003/2/1,16:30,9,0,45,0,16.6,0,48.2,0,10.7,0,16.2,0,11.2,0
2003/2/1,16:45,8.8,0,46,0,16.5,0,48.5,0,10.9,0,15.9,0,11.2,0
2003/2/1,17:00,8.6,0,47,0,16.4,0,50.4,0,9.8,0,15.8,0,11.3,0
2003/2/1,17:15,8.3,0,46,0,16.3,0,51.4,0,10,0,15.6,0,11.3,0
2003/2/1,17:30,8.1,0,47,0,16.3,0,52,0,9.5,0,15.5,0,11.4,0
2003/2/1,17:45,8.2,0,48,0,16.6,0,54.8,0,10.9,0,15.8,0,11.4,0
2003/2/1,18:00,8.1,0,50,0,16.7,0,54.7,0,10.4,0,16,0,11.4,0
2003/2/1,18:15,7.9,0,54,0,16.8,0,53.8,0,10.7,0,16.1,0,11.4,0
2003/2/1,18:30,7.5,0,66,0,16.9,0,54.2,0,10.9,0,16.2,0,11.5,0
2003/2/1,18:45,7.3,0,69,0,17,0,54.3,0,11.1,0,16.4,0,11.5,0
2003/2/1,19:00,7.2,0,69,0,17,0,53.8,0,11.3,0,16.4,0,11.5,0
2003/2/1,19:15,6.9,0,70,0,17.1,0,53.7,0,10,0,16.5,0,11.5,0
2003/2/1,19:30,6.8,0,70,0,17.2,0,56.6,0,10.4,0,16.6,0,11.5,0
2003/2/1,19:45,6.9,0,70,0,17.2,0,55.3,0,11.4,0,16.6,0,11.5,0
2003/2/1,20:00,6.6,0,72,0,17.3,0,56.8,0,11.6,0,16.7,0,11.6,0
2003/2/1,20:15,6.2,0,74,0,19.4,0,54.8,0,11.7,0,18.1,0,11.6,0
2003/2/1,20:30,6.5,0,70,0,20.6,0,59,0,11.9,0,20.6,0,11.6,0
2003/2/1,20:45,6.4,0,67,0,19.7,0,67.9,0,12,0,19.8,0,11.6,0
2003/2/1,21:00,6,0,70,0,19.7,0,72.5,0,12.2,0,19.5,0,11.6,0
2003/2/1,21:15,5.7,0,71,0,19.9,0,85.3,0,12.3,0,19.5,0,11.6,0
2003/2/1,21:30,5.6,0,73,0,19.6,0,68.7,0,12.4,0,19.3,0,11.6,0
2003/2/1,21:45,5.7,0,73,0,19.3,0,54.7,0,11.8,0,19,0,11.6,0
2003/2/1,22:00,5.7,0,72,0,19.2,0,51.3,0,12,0,18.7,0,11.6,0
2003/2/1,22:15,5.7,0,71,0,19,0,52.4,0,12.1,0,18.5,0,11.6,0
2003/2/1,22:30,5.6,0,70,0,19,0,51.7,0,12.3,0,18.3,0,11.6,0
2003/2/1,22:45,5.2,0,70,0,19.3,0,50.7,0,12.4,0,18.6,0,11.5,0
2003/2/1,23:00,5.6,0,63,0,19.1,0,49,0,12.6,0,18.7,0,11.5,0
2003/2/1,23:15,5.8,0,58,0,18.8,0,46.9,0,12.7,0,18.4,0,11.5,0
2003/2/1,23:30,5.8,0,56,0,18.5,0,46.5,0,11,0,18,0,11.4,0
2003/2/1,23:45,5.8,0,56,0,18.4,0,47,0,11.2,0,17.9,0,11.4,0
2003/2/2,0:00,5.8,0,57,0,18.3,0,47.7,0,11.4,0,17.8,0,11.4,0
2003/2/2,0:15,5.8,0,58,0,18.1,0,47.9,0,11.6,0,17.7,0,11.4,0
2003/2/2,0:30,5.7,0,60,0,18,0,48.4,0,11.8,0,17.6,0,11.3,0
2003/2/2,0:45,5.6,0,62,0,17.9,0,48.6,0,11.9,0,17.5,0,11.3,0
2003/2/2,1:00,5.8,0,59,0,17.7,0,48.8,0,12,0,17.4,0,11.3,0
2003/2/2,1:15,5.7,0,60,0,17.6,0,49.1,0,12.2,0,17.3,0,11.3,0
2003/2/2,1:30,5.7,0,60,0,17.5,0,49.1,0,12.3,0,17.2,0,11.3,0
2003/2/2,1:45,5.8,0,59,0,17.3,0,49.2,0,12.4,0,17.1,0,11.3,0
2003/2/2,2:00,5.7,0,59,0,17.2,0,49.6,0,12.6,0,17,0,11.3,0
2003/2/2,2:15,5.6,0,60,0,17.1,0,49.8,0,12.7,0,16.9,0,11.3,0
2003/2/2,2:30,5.5,0,61,0,17,0,50.3,0,12.8,0,16.8,0,11.3,0
2003/2/2,2:45,5.5,0,59,0,16.9,0,50.2,0,12.9,0,16.7,0,11.3,0
2003/2/2,3:00,5.7,0,56,0,16.8,0,50.2,0,12.9,0,16.6,0,11.3,0
2003/2/2,3:15,5.8,0,55,0,16.7,0,50.2,0,13,0,16.5,0,11.3,0
2003/2/2,3:30,5.6,0,55,0,16.6,0,49.9,0,13.1,0,16.4,0,11.3,0
2003/2/2,3:45,5.5,0,59,0,16.5,0,49.8,0,13.2,0,16.4,0,11.3,0
2003/2/2,4:00,5.4,0,59,0,16.4,0,49.8,0,13.3,0,16.3,0,11.3,0
2003/2/2,4:15,5.3,0,60,0,16.3,0,49.6,0,13.3,0,16.2,0,11.2,0
2003/2/2,4:30,5.2,0,60,0,16.2,0,49.6,0,13.4,0,16.1,0,11.2,0
2003/2/2,4:45,5.2,0,61,0,16.1,0,49.5,0,13.5,0,16,0,11.2,0
2003/2/2,5:00,4.9,0,64,0,16,0,49.4,0,13.5,0,15.9,0,11.2,0
2003/2/2,5:15,4.8,0,65,0,16,0,49.6,0,13.6,0,15.8,0,11.2,0
2003/2/2,5:30,4.7,0,68,0,15.9,0,49.5,0,13.7,0,15.8,0,11.2,0
2003/2/2,5:45,4.4,0,72,0,15.8,0,49.6,0,13.7,0,15.7,0,11.2,0
2003/2/2,6:00,4.4,0,73,0,15.7,0,49.5,0,13.8,0,15.6,0,11.2,0
2003/2/2,6:15,4.3,0,75,0,15.6,0,49.3,0,13.8,0,15.5,0,11.2,0
2003/2/2,6:30,4,0,79,0,15.6,0,49.3,0,13.9,0,15.5,0,11.2,0
2003/2/2,6:45,3.8,0,81,0,15.5,0,49.5,0,14,0,15.4,0,11.2,0
2003/2/2,7:00,3.7,0,81,0,15.6,0,50.3,0,14,0,15.3,0,11.2,0
2003/2/2,7:15,3.7,0,82,0,15.7,0,50.9,0,14.1,0,15.3,0,11.2,0
2003/2/2,7:30,3.7,0,83,0,15.7,0,51.3,0,14.1,0,15.3,0,11.1,0
2003/2/2,7:45,3.6,0,83,0,15.8,0,52.9,0,14.2,0,15.3,0,11.1,0
2003/2/2,8:00,4.1,0,84,0,15.9,0,53.2,0,14.2,0,15.3,0,11,0
2003/2/2,8:15,6.5,0,76,0,15.9,0,52.2,0,12,0,15.3,0,11,0
2003/2/2,8:30,7.3,0,64,0,15.8,0,51,0,12.1,0,15.1,0,11.1,0
2003/2/2,8:45,7.1,0,67,0,15.7,0,51.4,0,11.8,0,15,0,11,0
2003/2/2,9:00,11.9,0,52,0,15.6,0,52.9,0,11.9,0,15,0,11,0
2003/2/2,9:15,10.1,0,55,0,15.8,0,51.2,0,12.1,0,15,0,11.1,0
2003/2/2,9:30,8,0,61,0,15.7,0,50.7,0,12.2,0,15,0,11.1,0
2003/2/2,9:45,7.4,0,67,0,17.9,0,45.4,0,12.4,0,16.6,0,11.1,0
2003/2/2,10:00,7.2,0,67,0,18.1,0,46.1,0,12,0,18.4,0,11.1,0
2003/2/2,10:15,14.4,0,44,0,17.5,0,50.3,0,12.2,0,17.5,0,11.1,0
2003/2/2,10:30,13.1,0,43,0,17.4,0,50,0,11.1,0,17,0,11.1,0
2003/2/2,10:45,4.8,0,58,0,17.4,0,51.2,0,11.3,0,16.9,0,11.2,0
2003/2/2,11:00,5.3,0,59,0,17.4,0,52.1,0,10.5,0,16.9,0,11.2,0
2003/2/2,11:15,5.8,0,54,0,17.2,0,51.9,0,10.7,0,16.7,0,11.2,0
2003/2/2,11:30,4.8,0,54,0,17.3,0,53.9,0,11,0,16.7,0,11.2,0
2003/2/2,11:45,23,0,23,0,17.4,0,54.1,0,11.1,0,16.7,0,11.2,0
2003/2/2,12:00,25.9,0,16,0,17.4,0,54.6,0,11.3,0,16.7,0,11.3,0
2003/2/2,12:15,22.9,0,25,0,17.3,0,53.7,0,11.5,0,16.6,0,11.3,0
2003/2/2,12:30,22.3,0,25,0,17.4,0,50.5,0,11.7,0,16.4,0,11.4,0
2003/2/2,12:45,15.8,0,35,0,17.1,0,44.9,0,11.8,0,16.2,0,11.4,0
2003/2/2,13:00,14.4,0,37,0,17.1,0,48.3,0,12,0,16.1,0,11.5,0
2003/2/2,13:15,16.6,0,33,0,17.1,0,52.5,0,12.1,0,16.1,0,11.5,0
2003/2/2,13:30,20.6,0,23,0,17.2,0,54.7,0,11.7,0,16.4,0,11.6,0
2003/2/2,13:45,14.2,0,35,0,17,0,53.7,0,11.2,0,16.4,0,11.6,0
2003/2/2,14:00,12.6,0,40,0,17,0,53,0,12,0,16.3,0,11.7,0
2003/2/2,14:15,12.8,0,39,0,16.9,0,52.8,0,12.2,0,16.3,0,11.7,0
2003/2/2,14:30,13.5,0,40,0,16.9,0,52.9,0,12.3,0,16.3,0,11.8,0
2003/2/2,14:45,13.5,0,37,0,16.9,0,52.6,0,12.5,0,16.3,0,11.8,0
2003/2/2,15:00,13.8,0,36,0,16.9,0,52.5,0,12.6,0,16.3,0,11.8,0
2003/2/2,15:15,13.9,0,36,0,16.8,0,52.5,0,12.8,0,16.3,0,11.9,0
2003/2/2,15:30,13.3,0,35,0,16.8,0,52.3,0,12.9,0,16.3,0,11.9,0
2003/2/2,15:45,12.3,0,37,0,16.8,0,52.3,0,13,0,16.3,0,12,0
2003/2/2,16:00,12.6,0,40,0,16.8,0,52.2,0,13.2,0,16.3,0,12,0
2003/2/2,16:15,11.4,0,41,0,16.8,0,50.7,0,10.7,0,16.2,0,12,0
2003/2/2,16:30,11.4,0,43,0,18.7,0,46,0,11.1,0,17.1,0,12.1,0
2003/2/2,16:45,10.5,0,47,0,20.8,0,42.7,0,10.6,0,20.3,0,12.1,0
2003/2/2,17:00,9.8,0,51,0,21,0,44.3,0,10.8,0,21.3,0,12.2,0
2003/2/2,17:15,9.5,0,52,0,19.8,0,48.2,0,11,0,20.4,0,12.2,0
2003/2/2,17:30,9.5,0,55,0,19.5,0,44.1,0,11.5,0,19.5,0,12.3,0
2003/2/2,17:45,8.9,0,54,0,21.9,0,46.9,0,11.7,0,21.4,0,12.3,0
2003/2/2,18:00,8.7,0,55,0,22.4,0,43.5,0,11.9,0,22.3,0,12.4,0
2003/2/2,18:15,8.5,0,56,0,23.2,0,40,0,11,0,23.4,0,12.4,0
2003/2/2,18:30,8,0,59,0,22.2,0,42.8,0,11.3,0,22.9,0,12.5,0
2003/2/2,18:45,7.3,0,62,0,21.7,0,44.6,0,11.5,0,21.7,0,12.5,0
2003/2/2,19:00,7.1,0,63,0,21.4,0,42.2,0,11.8,0,21,0,12.5,0
2003/2/2,19:15,7,0,63,0,21,0,40.9,0,12,0,20.6,0,12.5,0
2003/2/2,19:30,6.4,0,65,0,20.7,0,42.8,0,12.2,0,20.1,0,12.5,0
2003/2/2,19:45,6.1,0,67,0,20.5,0,45.5,0,12.3,0,19.6,0,12.5,0
2003/2/2,20:00,5.8,0,68,0,20.3,0,45.6,0,12.5,0,19.5,0,12.5,0
2003/2/2,20:15,5.3,0,73,0,20,0,47,0,12.7,0,19.2,0,12.5,0
2003/2/2,20:30,5.3,0,72,0,19.9,0,48.2,0,12.8,0,19.2,0,12.5,0
2003/2/2,20:45,5.4,0,70,0,19.7,0,47.8,0,12.9,0,19,0,12.4,0
2003/2/2,21:00,5.5,0,70,0,19.6,0,47.9,0,10.5,0,18.9,0,12.4,0
2003/2/2,21:15,5.6,0,72,0,19.4,0,46.9,0,10.7,0,18.7,0,12.4,0
2003/2/2,21:30,5.2,0,71,0,19.2,0,47.3,0,11,0,18.5,0,12.3,0
2003/2/2,21:45,5.1,0,72,0,19.1,0,49.7,0,11.2,0,18.5,0,12.3,0
2003/2/2,22:00,5.3,0,74,0,19,0,51.2,0,11.4,0,18.4,0,12.3,0
2003/2/2,22:15,5.6,0,80,0,18.9,0,50.8,0,11.6,0,18.4,0,12.3,0
2003/2/2,22:30,5.5,0,86,0,18.8,0,50.7,0,11.8,0,18.3,0,12.3,0
2003/2/2,22:45,5.3,0,90,0,18.6,0,50.6,0,11.9,0,18.2,0,12.3,0
2003/2/2,23:00,5.3,0,91,0,18.5,0,50.7,0,12.1,0,18.1,0,12.2,0
2003/2/2,23:15,5.3,0,91,0,18.4,0,50.9,0,12.2,0,18,0,12.2,0
2003/2/2,23:30,5.4,0,91,0,18.3,0,50.9,0,12.3,0,17.9,0,12.2,0
2003/2/2,23:45,5.4,0,91,0,18.2,0,51.1,0,12.4,0,17.8,0,12.1,0
2003/2/3,0:00,5.3,0,91,0,18.1,0,51.2,0,12.6,0,17.7,0,12.1,0
2003/2/3,0:15,5.3,0,89,0,17.9,0,51.2,0,12.7,0,17.6,0,12.1,0
2003/2/3,0:30,5.1,0,91,0,17.8,0,51.4,0,12.8,0,17.6,0,12.1,0
2003/2/3,0:45,4.8,0,92,0,17.7,0,51.3,0,12.9,0,17.5,0,12.1,0
2003/2/3,1:00,4.6,0,94,0,17.6,0,51.3,0,13,0,17.4,0,12.1,0
2003/2/3,1:15,4.4,0,95,0,17.6,0,51.4,0,13.1,0,17.3,0,12.1,0
2003/2/3,1:30,4.4,0,95,0,17.4,0,51.3,0,13.1,0,17.2,0,12.1,0
2003/2/3,1:45,4.5,0,96,0,17.3,0,51.3,0,13.2,0,17.1,0,12.1,0
2003/2/3,2:00,4.5,0,95,0,17.2,0,51.5,0,13.3,0,17,0,12.1,0
2003/2/3,2:15,4.7,0,94,0,17.2,0,51.4,0,13.4,0,17,0,12.1,0
2003/2/3,2:30,4.7,0,94,0,17.1,0,51.5,0,13.5,0,16.9,0,12.1,0
2003/2/3,2:45,4.8,0,94,0,17,0,51.5,0,13.5,0,16.8,0,12.1,0
2003/2/3,3:00,4.5,0,95,0,16.9,0,51.4,0,13.6,0,16.7,0,12.1,0
2003/2/3,3:15,4.4,0,94,0,16.8,0,51.8,0,13.7,0,16.6,0,12,0
2003/2/3,3:30,4.1,0,93,0,16.7,0,53.1,0,13.7,0,16.5,0,12,0
2003/2/3,3:45,4,0,96,0,16.6,0,53.8,0,13.8,0,16.5,0,12,0
2003/2/3,4:00,4.4,0,94,0,16.6,0,54.2,0,13.9,0,16.4,0,12,0
2003/2/3,4:15,4.6,0,92,0,16.6,0,54.6,0,13.9,0,16.4,0,12,0
2003/2/3,4:30,4.7,0,92,0,16.5,0,54.3,0,14,0,16.3,0,11.9,0
2003/2/3,4:45,4.6,0,93,0,16.4,0,54.4,0,14,0,16.2,0,11.9,0
2003/2/3,5:00,4.4,0,94,0,16.4,0,53.9,0,14.1,0,16.2,0,11.9,0
2003/2/3,5:15,3.9,0,94,0,16.3,0,53.4,0,14.1,0,16.1,0,11.8,0
2003/2/3,5:30,3.7,0,95,0,16.2,0,53.3,0,14.2,0,16,0,11.8,0
2003/2/3,5:45,3.4,0,96,0,16.1,0,53.3,0,14.2,0,15.9,0,11.7,0
2003/2/3,6:00,3.6,0,98,0,15.9,0,53.1,0,14.3,0,15.9,0,11.7,0
2003/2/3,6:15,3.2,0,99,0,18.9,0,49.3,0,14.3,0,17.3,0,11.7,0
2003/2/3,6:30,3,0,99,0,21.5,0,45.7,0,11.9,0,19.9,0,11.7,0
2003/2/3,6:45,3.5,0,99,0,22,0,47,0,12.1,0,21.6,0,11.7,0
2003/2/3,7:00,3.6,0,99,0,22.3,0,50.4,0,12.3,0,22.2,0,11.6,0
2003/2/3,7:15,3.1,0,99,0,23.2,0,46.8,0,12.4,0,22.9,0,11.7,0
2003/2/3,7:30,2.9,0,99,0,23.7,0,43.3,0,12,0,23.2,0,11.7,0
2003/2/3,7:45,3.4,0,99,0,24.1,0,45.1,0,12.1,0,23.6,0,11.7,0
2003/2/3,8:00,6.4,0,99,0,24.4,0,39.1,0,12.3,0,23.1,0,11.8,0
2003/2/3,8:15,7.7,0,83,0,24.5,0,41.5,0,12.5,0,23.5,0,12,0
2003/2/3,8:30,11.5,0,66,0,24.2,0,39.4,0,11.3,0,23.7,0,12.2,0
2003/2/3,8:45,9.6,0,65,0,23.6,0,39.5,0,11.6,0,23.2,0,12.4,0
2003/2/3,9:00,13.1,0,60,0,22.2,0,42.9,0,11.8,0,21.5,0,12.5,0
2003/2/3,9:15,12.3,0,55,0,21.5,0,43.4,0,12,0,20.4,0,12.7,0
2003/2/3,9:30,13.2,0,53,0,20.9,0,44.7,0,10.6,0,19.6,0,12.9,0
2003/2/3,9:45,16.3,0,47,0,21.1,0,45.7,0,10.8,0,19.6,0,13.1,0
2003/2/3,10:00,19.9,0,35,0,20.8,0,45.6,0,11.1,0,19.5,0,13.2,0
2003/2/3,10:15,20.8,0,30,0,20.7,0,46.9,0,11.4,0,19.6,0,13.3,0
2003/2/3,10:30,23.7,0,23,0,20.2,0,45.7,0,11.6,0,19.2,0,13.4,0
2003/2/3,10:45,20.7,0,27,0,19.9,0,45.4,0,11.8,0,18.8,0,13.5,0
2003/2/3,11:00,20.2,0,27,0,19.6,0,45.3,0,12,0,18.5,0,13.6,0
2003/2/3,11:15,24,0,20,0,19.4,0,45.4,0,12.2,0,18.3,0,13.7,0
2003/2/3,11:30,20.1,0,28,0,19.1,0,45.6,0,12.4,0,18,0,13.7,0
2003/2/3,11:45,24.6,0,20,0,18.8,0,46.1,0,12.5,0,17.8,0,13.8,0
2003/2/3,12:00,28.9,0,15,0,18.5,0,44.8,0,10.2,0,17.6,0,13.8,0
2003/2/3,12:15,21.9,0,28,0,18.3,0,40,0,10.6,0,17.1,0,13.8,0
2003/2/3,12:30,20.5,0,27,0,18.3,0,41.7,0,10.8,0,16.9,0,13.8,0
2003/2/3,12:45,28.7,0,14,0,18.5,0,45.7,0,11.1,0,17.3,0,13.8,0
2003/2/3,13:00,30.2,0,13,0,18.3,0,42.2,0,10.3,0,17.3,0,13.8,0
2003/2/3,13:15,24.5,0,16,0,18.3,0,41.4,0,10.5,0,17.4,0,13.8,0
2003/2/3,13:30,24.1,0,18,0,18.3,0,43.2,0,10.8,0,17.5,0,13.7,0
2003/2/3,13:45,19.9,0,25,0,18.3,0,45.5,0,11,0,17.6,0,13.7,0
2003/2/3,14:00,17.5,0,28,0,18.4,0,46.7,0,11.3,0,17.7,0,13.7,0
2003/2/3,14:15,17.9,0,28,0,18.4,0,47.9,0,11.5,0,17.7,0,13.6,0
2003/2/3,14:30,17.8,0,28,0,18.4,0,48.6,0,11.6,0,17.8,0,13.6,0
2003/2/3,14:45,17.6,0,27,0,18.5,0,48.9,0,11.8,0,17.8,0,13.5,0
2003/2/3,15:00,16.7,0,26,0,18.5,0,49.4,0,12,0,17.9,0,13.5,0
2003/2/3,15:15,16.2,0,30,0,18.5,0,49.5,0,12.1,0,17.9,0,13.5,0
2003/2/3,15:30,15.5,0,30,0,18.5,0,49.6,0,12.3,0,17.9,0,13.4,0
2003/2/3,15:45,14.7,0,32,0,18.5,0,49.5,0,12.4,0,17.9,0,13.4,0
2003/2/3,16:00,14.2,0,32,0,18.4,0,49.4,0,12.6,0,18,0,13.4,0
2003/2/3,16:15,13.6,0,32,0,18.4,0,49.8,0,12.7,0,18,0,13.3,0
2003/2/3,16:30,13.1,0,34,0,18.4,0,47.9,0,12.8,0,18,0,13.3,0
2003/2/3,16:45,12.2,0,35,0,18.4,0,50.1,0,11.3,0,17.9,0,13.3,0
2003/2/3,17:00,11.9,0,37,0,18.2,0,42.6,0,11.5,0,17.8,0,13.3,0
2003/2/3,17:15,11.5,0,39,0,18.2,0,46.5,0,11.7,0,17.6,0,13.3,0
2003/2/3,17:30,11.1,0,39,0,18.4,0,50.3,0,11.9,0,17.9,0,13.3,0
2003/2/3,17:45,10.1,0,43,0,18.2,0,43.8,0,12.1,0,17.7,0,13.3,0
2003/2/3,18:00,9.2,0,47,0,18,0,39.6,0,12.3,0,17.4,0,13.3,0
2003/2/3,18:15,7.7,0,55,0,17.7,0,40.3,0,12.4,0,17.1,0,13.3,0
2003/2/3,18:30,6.5,0,61,0,17.7,0,42,0,12.6,0,17,0,13.3,0
2003/2/3,18:45,6.3,0,62,0,17.8,0,45.8,0,12.7,0,17,0,13.3,0
2003/2/3,19:00,5.8,0,64,0,17.8,0,46.1,0,11.3,0,17.1,0,13.2,0
2003/2/3,19:15,5.3,0,65,0,17.7,0,44.9,0,11.7,0,17.1,0,13.2,0
2003/2/3,19:30,5.3,0,66,0,18,0,49.6,0,11.8,0,17.4,0,13.2,0
2003/2/3,19:45,4.8,0,67,0,18.1,0,53,0,12,0,17.5,0,13.2,0
2003/2/3,20:00,4.4,0,70,0,18,0,50.9,0,11.8,0,17.5,0,13.2,0
2003/2/3,20:15,3.9,0,70,0,18.1,0,55,0,11.9,0,17.5,0,13.2,0
2003/2/3,20:30,3.4,0,71,0,18.1,0,56.3,0,12.1,0,17.6,0,13.2,0
2003/2/3,20:45,3.1,0,70,0,18.4,0,57.2,0,12.3,0,17.8,0,13.2,0
2003/2/3,21:00,2.6,0,72,0,18.7,0,57.5,0,12.4,0,18.2,0,13.2,0
2003/2/3,21:15,1.8,0,70,0,18.5,0,57.8,0,12.6,0,18.1,0,13.2,0
2003/2/3,21:30,-0.1,0,74,0,18.6,0,57.4,0,12.7,0,18.1,0,13.2,0
2003/2/3,21:45,-1.7,0,71,0,18.6,0,57.3,0,12.8,0,18.2,0,13.3,0
2003/2/3,22:00,3.5,0,74,0,18.5,0,57.9,0,12.9,0,18.1,0,13.3,0
2003/2/3,22:15,3.3,0,77,0,18.6,0,56.8,0,13,0,18.1,0,13.3,0
2003/2/3,22:30,3.3,0,77,0,18.5,0,56.5,0,13.1,0,18.1,0,13.2,0
2003/2/3,22:45,3.4,0,78,0,18.6,0,56.4,0,13.2,0,18.1,0,13.2,0
2003/2/3,23:00,3.5,0,78,0,18.5,0,55.9,0,13.3,0,18.1,0,13.2,0
2003/2/3,23:15,3.3,0,79,0,18.5,0,55,0,13.4,0,18.1,0,13.2,0
2003/2/3,23:30,3.3,0,80,0,18.5,0,54.8,0,13.5,0,18.1,0,13.1,0
2003/2/3,23:45,3.4,0,81,0,18.5,0,53.5,0,10.8,0,18,0,13.1,0
2003/2/4,0:00,3.7,0,79,0,18.4,0,52.5,0,11.1,0,17.9,0,13.1,0
2003/2/4,0:15,3.3,0,79,0,18.2,0,52.1,0,11.3,0,17.8,0,13.1,0
2003/2/4,0:30,3.6,0,80,0,18.1,0,51.8,0,11.5,0,17.7,0,13,0
2003/2/4,0:45,3.9,0,78,0,17.9,0,51.8,0,11.6,0,17.6,0,13,0
2003/2/4,1:00,4,0,75,0,17.8,0,51.6,0,11.8,0,17.5,0,13,0
2003/2/4,1:15,4,0,76,0,17.6,0,51.5,0,11.9,0,17.4,0,12.9,0
2003/2/4,1:30,3.7,0,79,0,17.5,0,51.4,0,12,0,17.3,0,12.9,0
2003/2/4,1:45,3.7,0,76,0,17.3,0,51.2,0,12.2,0,17.1,0,12.9,0
2003/2/4,2:00,3.4,0,77,0,17.2,0,51.3,0,12.3,0,17,0,12.9,0
2003/2/4,2:15,3.1,0,81,0,17.1,0,51.2,0,12.4,0,16.9,0,12.9,0
2003/2/4,2:30,3.4,0,81,0,16.9,0,51.1,0,12.5,0,16.8,0,12.8,0
2003/2/4,2:45,3.5,0,80,0,16.8,0,51.3,0,12.6,0,16.7,0,12.8,0
2003/2/4,3:00,3.8,0,80,0,16.6,0,51.4,0,12.7,0,16.5,0,12.7,0
2003/2/4,3:15,3.7,0,82,0,16.5,0,51.5,0,12.8,0,16.4,0,12.7,0
2003/2/4,3:30,3.8,0,82,0,16.4,0,51.4,0,12.9,0,16.3,0,12.6,0
2003/2/4,3:45,4,0,78,0,16.2,0,51.6,0,13,0,16.2,0,12.6,0
2003/2/4,4:00,3.9,0,80,0,16.1,0,52.5,0,13,0,16.1,0,12.5,0
2003/2/4,4:15,3.8,0,83,0,16,0,52.3,0,13.1,0,16,0,12.5,0
2003/2/4,4:30,4.4,0,79,0,15.8,0,52.3,0,13.2,0,15.9,0,12.5,0
2003/2/4,4:45,5,0,73,0,15.7,0,52.4,0,13.2,0,15.8,0,12.4,0
2003/2/4,5:00,4.4,0,79,0,15.6,0,52.4,0,13.3,0,15.7,0,12.4,0
2003/2/4,5:15,4.3,0,81,0,15.5,0,52.5,0,13.4,0,15.6,0,12.3,0
2003/2/4,5:30,4.5,0,78,0,15.4,0,52.7,0,13.4,0,15.5,0,12.3,0
2003/2/4,5:45,4.7,0,77,0,15.3,0,52.6,0,13.5,0,15.5,0,12.3,0
2003/2/4,6:00,5.2,0,74,0,15.2,0,53,0,13.6,0,15.4,0,12.2,0
2003/2/4,6:15,5.4,0,72,0,18.4,0,49,0,12.2,0,16.9,0,12.2,0
2003/2/4,6:30,5.3,0,71,0,20.6,0,44.8,0,11.5,0,19.5,0,12.2,0
2003/2/4,6:45,5.9,0,68,0,18.5,0,50.6,0,11.7,0,18.8,0,12.1,0
2003/2/4,7:00,5.9,0,66,0,18.7,0,65.5,0,11.8,0,18.6,0,12.1,0
2003/2/4,7:15,5.9,0,66,0,18.5,0,61.2,0,11.9,0,18.4,0,12,0
2003/2/4,7:30,6.1,0,64,0,18.1,0,52,0,12.1,0,17.9,0,12,0
2003/2/4,7:45,6.2,0,65,0,18,0,50.9,0,12.2,0,17.8,0,11.9,0
2003/2/4,8:00,6.4,0,64,0,17.7,0,49,0,12.4,0,17.5,0,11.9,0
2003/2/4,8:15,5.8,0,77,0,20,0,42.5,0,12.5,0,19.3,0,11.8,0
2003/2/4,8:30,5.4,0,89,0,20.9,0,39.8,0,12.6,0,20.2,0,11.8,0
2003/2/4,8:45,5.3,0,94,0,21.2,0,39.2,0,12.8,0,20.8,0,11.8,0
2003/2/4,9:00,5.3,0,96,0,19.4,0,44,0,12.9,0,19,0,11.9,0
2003/2/4,9:15,5.4,0,95,0,18.9,0,45.5,0,13,0,18.1,0,11.9,0
2003/2/4,9:30,5.5,0,94,0,18.5,0,47,0,13.1,0,17.4,0,12,0
2003/2/4,9:45,5.8,0,95,0,18.1,0,48.2,0,13.2,0,16.9,0,12,0
2003/2/4,10:00,6.1,0,92,0,17.8,0,49.3,0,13.3,0,16.5,0,12.1,0
2003/2/4,10:15,6.4,0,87,0,17.5,0,50.4,0,13.4,0,16.2,0,12.1,0
2003/2/4,10:30,6.5,0,84,0,17.2,0,51.3,0,13.4,0,15.9,0,12.1,0
2003/2/4,10:45,7.4,0,81,0,17.3,0,51.7,0,10.9,0,16,0,12.2,0
2003/2/4,11:00,7.8,0,73,0,17.3,0,52.3,0,11.1,0,16.2,0,12.1,0
2003/2/4,11:15,8.8,0,68,0,17.2,0,53.4,0,11.3,0,16.3,0,12.1,0
2003/2/4,11:30,15.2,0,46,0,16.9,0,52.9,0,11.5,0,16,0,12.1,0
2003/2/4,11:45,17.5,0,37,0,16.8,0,53,0,11.7,0,15.9,0,12.2,0
2003/2/4,12:00,21.6,0,27,0,16.9,0,52.1,0,11.8,0,15.9,0,12.2,0
2003/2/4,12:15,18.9,0,31,0,17.1,0,62.4,0,12,0,16.3,0,12.2,0
2003/2/4,12:30,14.3,0,40,0,17.1,0,62.6,0,12.1,0,16.5,0,12.2,0
2003/2/4,12:45,13.1,0,41,0,17.1,0,61.6,0,12.3,0,16.6,0,12.3,0
2003/2/4,13:00,11.2,0,45,0,17.2,0,60.7,0,12.4,0,16.7,0,12.3,0
2003/2/4,13:15,10.9,0,46,0,17.2,0,60.2,0,12.5,0,16.8,0,12.3,0
2003/2/4,13:30,12.1,0,44,0,17.2,0,59.9,0,12.6,0,16.9,0,12.3,0
2003/2/4,13:45,12.9,0,42,0,17.2,0,59.3,0,12.7,0,16.9,0,12.3,0
2003/2/4,14:00,13.9,0,35,0,17.3,0,58.5,0,12.8,0,17,0,12.3,0
2003/2/4,14:15,11.1,0,44,0,17.4,0,58.1,0,12.9,0,17,0,12.3,0
2003/2/4,14:30,11.2,0,45,0,17.4,0,56.8,0,10.6,0,17.1,0,12.3,0
2003/2/4,14:45,11.5,0,44,0,17.4,0,55.8,0,10.2,0,17.1,0,12.3,0
2003/2/4,15:00,10.2,0,49,0,17.5,0,53.9,0,10.6,0,17.1,0,12.3,0
2003/2/4,15:15,9.3,0,51,0,17.4,0,53.5,0,10.8,0,17,0,12.3,0
2003/2/4,15:30,8.9,0,56,0,17.5,0,54.7,0,11,0,17.1,0,12.3,0
2003/2/4,15:45,8.8,0,57,0,17.6,0,54.5,0,10.7,0,17.1,0,12.3,0
2003/2/4,16:00,8.7,0,60,0,17.6,0,54.6,0,10.9,0,17.1,0,12.3,0
2003/2/4,16:15,8.7,0,58,0,17.7,0,54,0,11.3,0,17.2,0,12.3,0
2003/2/4,16:30,8.5,0,58,0,17.8,0,53.7,0,11.7,0,17.3,0,12.3,0
2003/2/4,16:45,8.4,0,57,0,17.8,0,52.3,0,11.9,0,17.3,0,12.3,0
2003/2/4,17:00,8.3,0,58,0,17.9,0,51,0,10,0,17.3,0,12.3,0
2003/2/4,17:15,8.2,0,60,0,17.7,0,45.4,0,10.3,0,17.1,0,12.2,0
2003/2/4,17:30,8.1,0,60,0,17.5,0,44.2,0,10.6,0,16.9,0,12.2,0
2003/2/4,17:45,7.9,0,61,0,17.7,0,47.9,0,10.8,0,17,0,12.2,0
2003/2/4,18:00,7.9,0,61,0,17.4,0,43.9,0,11,0,16.8,0,12.2,0
2003/2/4,18:15,7.6,0,61,0,17.2,0,46,0,11.2,0,16.4,0,12.1,0
2003/2/4,18:30,7.7,0,61,0,17.2,0,47,0,11.3,0,16.3,0,12.1,0
2003/2/4,18:45,7.7,0,62,0,17.1,0,47,0,11.5,0,16.3,0,12.1,0
2003/2/4,19:00,7.6,0,61,0,17,0,45.9,0,11.6,0,16.3,0,12.1,0
2003/2/4,19:15,7.6,0,57,0,17,0,47.7,0,11.6,0,16.4,0,12,0
2003/2/4,19:30,7.5,0,58,0,17.1,0,48.5,0,11.7,0,16.6,0,12,0
2003/2/4,19:45,7.5,0,60,0,17,0,48,0,11.9,0,16.7,0,12,0
2003/2/4,20:00,6.4,0,73,0,16.9,0,47.1,0,12,0,16.6,0,11.9,0
2003/2/4,20:15,6.3,0,74,0,16.8,0,52.7,0,12.2,0,16.4,0,11.9,0
2003/2/4,20:30,6.7,0,69,0,16.7,0,53.5,0,12.3,0,16.4,0,11.9,0
2003/2/4,20:45,6.6,0,65,0,16.6,0,53.1,0,12.4,0,16.2,0,11.8,0
2003/2/4,21:00,6.8,0,62,0,16.6,0,52.9,0,12.1,0,16.1,0,11.8,0
2003/2/4,21:15,6.7,0,60,0,16.5,0,54,0,12.2,0,16,0,11.8,0
2003/2/4,21:30,6.9,0,57,0,17,0,55,0,12.3,0,16.3,0,11.8,0
2003/2/4,21:45,5.1,0,75,0,17.3,0,53.1,0,12.4,0,16.8,0,11.7,0
2003/2/4,22:00,4.8,0,81,0,17,0,50.7,0,12.5,0,16.7,0,11.7,0
2003/2/4,22:15,4.9,0,78,0,16.8,0,49,0,12.6,0,16.4,0,11.8,0
2003/2/4,22:30,5.1,0,79,0,16.8,0,47.7,0,12.7,0,16.3,0,11.8,0
2003/2/4,22:45,5.3,0,77,0,16.6,0,49.3,0,12.8,0,16.2,0,11.8,0
2003/2/4,23:00,6,0,62,0,16.5,0,47.1,0,12.9,0,16.1,0,11.8,0
2003/2/4,23:15,6.2,0,59,0,16.6,0,46.7,0,13,0,16.1,0,11.8,0
2003/2/4,23:30,6.2,0,56,0,16.6,0,46.6,0,13.1,0,16,0,11.8,0
2003/2/4,23:45,6.1,0,59,0,16.6,0,46.1,0,13.2,0,16,0,11.7,0
2003/2/5,0:00,5.9,0,60,0,16.4,0,45.8,0,13.2,0,15.9,0,11.7,0
2003/2/5,0:15,6.2,0,67,0,16.3,0,45,0,13.3,0,15.8,0,11.7,0
2003/2/5,0:30,6.3,0,66,0,16.1,0,44.3,0,13.4,0,15.7,0,11.7,0
2003/2/5,0:45,6,0,63,0,16,0,44.2,0,13.4,0,15.6,0,11.7,0
2003/2/5,1:00,6.2,0,62,0,15.9,0,44.4,0,13.5,0,15.5,0,11.7,0
2003/2/5,1:15,5.8,0,66,0,15.7,0,43.9,0,13.5,0,15.4,0,11.7,0
2003/2/5,1:30,5.9,0,63,0,15.5,0,43.3,0,13.6,0,15.3,0,11.7,0
2003/2/5,1:45,5.9,0,62,0,15.4,0,43.1,0,13.6,0,15.1,0,11.7,0
2003/2/5,2:00,5.9,0,60,0,15.3,0,43.3,0,13.7,0,15,0,11.7,0